Location: Cañada de la Miga
(34.7595°N, 106.2317°W)
Time: 15:52:48
(UTC+00:00)

Transit 4A - Pass Details

Date: 09 December 2021
Orbit: 864 x 981 km, 66.8° (Epoch: 18 January)

Event Time Altitude Azimuth Distance (km) Brightness Sun altitude
Exits shadow 11:06:19 16° 174° (S) 2,335 10.0 -35.0°
Drops below altitude 10° 11:07:25 10° 172° (S) 2,721 10.4 -34.8°
Sets 11:10:01 0° 168° (SSE) 3,665 11.2 -34.3°
